Flight Track Log - Related Links

Times and Time Zones

All times are in EDT time to prevent confusion due to time zone crossing. See the OPT905 flight status page for this flight to view local times or setup timezone preferences in your user account.

Time Position Orientation Groundspeed Altitude Reporting Facility
EDT Latitude Longitude Course Direction KTS MPH feet Rate Location/Type
12:07PM 42.4667 -71.3167 236° Southwest 154 177 1,300  Level KA90
12:08PM 42.4333 -71.3833 236° Southwest 239 275 3,400 1,937 Climbing KA90
12:09PM 42.3611 -71.5100 232° Southwest 278 320 6,400 2,605 Climbing Boston Center
12:10PM 42.3472 -71.6003 258° West 273 314 10,000 3,273 Climbing Boston Center
12:11PM 42.3439 -71.7239 268° West 299 344 13,000 2,727 Climbing Boston Center
12:13PM 42.3217 -71.8475 256° West 323 372 15,500 1,537 Climbing Boston Center
12:14PM 42.2994 -71.9769 257° West 359 413 16,100 300 Climbing Boston Center
12:15PM 42.2750 -72.1147 257° West 352 405 16,100  Level Boston Center
12:16PM 42.2544 -72.2214 255° West 347 399 16,100 -46 Level Boston Center
12:17PM 42.2253 -72.3783 256° West 337 388 16,000 -50 Descending Boston Center
12:18PM 42.2044 -72.4989 257° West 332 382 16,000  Level Boston Center
12:19PM 42.1836 -72.6081 256° West 338 389 16,000  Level Boston Center
12:20PM 42.1625 -72.7314 257° West 338 389 16,000  Level Boston Center
12:21PM 42.1517 -72.8714 264° West 338 389 16,000  Level Boston Center
12:22PM 42.1450 -72.9778 265° West 338 389 16,000  Level Boston Center
12:23PM 42.1378 -73.1119 266° West 332 382 16,000  Level Boston Center
12:24PM 42.1311 -73.2072 265° West 332 382 16,000 -508 Level Boston Center
12:25PM 42.1217 -73.3386 265° West 327 376 15,000 -992 Descending Boston Center
12:26PM 42.1100 -73.4783 264° West 333 383 14,000 -496 Descending Boston Center
12:27PM 42.1006 -73.5928 264° West 327 376 14,000  Level Boston Center
12:28PM 42.0956 -73.6850 266° West 322 371 14,000  Level Boston Center
12:29PM 42.0856 -73.8219 264° West 311 358 14,000  Level Boston Center
12:30PM 42.0758 -73.9253 263° West 311 358 14,000  Level Boston Center
12:31PM 42.0681 -74.0539 265° West 311 358 14,000 -361 Level Boston Center
12:32PM 42.0600 -74.1711 265° West 316 364 13,200 -1,128 Descending Boston Center
12:33PM 42.0394 -74.2878 257° West 321 369 11,500 -1,537 Descending Boston Center
12:34PM 41.9839 -74.3644 226° Southwest 311 358 10,100 -750 Descending Boston Center
12:35PM 41.8931 -74.4314 209° Southwest 305 351 10,000 -51 Descending Boston Center
12:36PM 41.8275 -74.4794 209° Southwest 300 345 10,000 -51 Level Boston Center
12:37PM 41.7456 -74.5297 205° Southwest 300 345 9,900 -694 Descending Boston Center
12:38PM 41.6639 -74.5436 187° South 294 338 8,600 -1,033 Descending Boston Center
12:39PM 41.5886 -74.5606 190° South 288 331 7,800 -942 Descending Boston Center
12:40PM 41.5133 -74.5747 188° South 280 322 6,700 -711 Descending Boston Center
12:41PM 41.4000 -74.6000 189° South 263 303 6,000 -276 Descending New York TRACON
12:42PM 41.3167 -74.6167 189° South 275 316 6,000 -53 Level New York TRACON
12:43PM 41.2500 -74.6500 201° Southwest 273 314 5,900 -474 Descending New York TRACON
12:44PM 41.1833 -74.6333 169° South 262 302 5,100 -700 Descending New York TRACON
12:45PM 41.1167 -74.6333 180° South 257 296 4,500 -850 Descending New York TRACON
12:46PM 41.0833 -74.5500 118° Southeast 266 306 3,400 -750 Descending New York TRACON
12:47PM 41.0833 -74.4500 90° East 257 296 3,000 -190 Descending New York TRACON
12:48PM 41.0667 -74.3500 102° East 255 293 3,000  Level New York TRACON
12:49PM 41.0500 -74.2667 105° East 257 296 3,000 -350 Level New York TRACON
12:50PM 41.0500 -74.1667 90° East 252 290 2,300 -500 Descending New York TRACON
12:51PM 41.0167 -74.1000 124° Southeast 234 269 2,000 -158 Descending New York TRACON
12:52PM 40.9667 -74.0667 153° Southeast 205 236 2,000 -397 Level New York TRACON
12:53PM 40.9167 -74.0500 166° South 160 184 1,200 -762 Descending New York TRACON
12:54PM 40.8667 -74.0500 180° South 140 161 400 -738 Descending New York TRACON
12:56PM 40.8500 -74.0500 174° South  Level FlightAware Approximate
01:03PM 40.8501 -74.0608 174° South  Level Estimated
01:04PM 40.8501 -74.0608 174° South  Level Estimated

Login

Don't have an account? Register now (free) for customized features, flight alerts, and more!